Flag for U.S.A. Weather past 2 weeks in Davis, California, U.S.A.

Now
82 °F

Sunny.


Feels Like: 83 °F
Forecast: 63 / 91 °F
Wind: 3 mph from South

Location: Sacramento International Airport

Current Time: Aug 1, 2015 at 2:01:50 PM

Latest Report: Aug 1, 2015 at 12:53 PM


Visibility: 10 mi

Pressure: 29.91 "Hg

Humidity: 49%

Dew point: 61 °F

Location of DavisLocation

Historic Weather in Davis — Graph

°F

Davis temperature yesterday

Maximum temperature yesterday: 92 °F (at 3:53 PM)
Minimum temperature yesterday: 64 °F (at 6:53 AM)
Average temperature yesterday: 76 °F

Past Weeks' High & Low Weather Summary

 TemperatureHumidityPressure
High105 °F (Jul 29, 4:53 PM)87% (Jul 23, 5:53 AM)30.08 "Hg (Jul 23, 5:53 AM)
Low57 °F (Jul 23, 5:53 AM)10% (Jul 28, 4:53 PM)29.66 "Hg (Jul 17, 7:53 PM)
Average76 °F51%29.87 "Hg
* Reported Jul 17 11:53 AM — Aug 1 11:53 AM, Davis, Weather by CustomWeather, © 2015

Note: Actual official high and low records may vary slightly from our data, if they occured in-between our weather recording intervals... More about our weather records

Advertising

Davis weather history for previous 24 hours

 ConditionsComfort  
Time TempWeatherWind HumidityBarometerVisibility
11:53 AM
Sat, Aug 1
78 °FSunny.3 mph54%29.93 "Hg10 mi
10:53 AM75 °FSunny.8 mph58%29.94 "Hg10 mi
9:53 AM71 °FPassing clouds.10 mph61%29.95 "Hg10 mi
8:53 AM68 °FPassing clouds.13 mph68%29.95 "Hg10 mi
7:53 AM64 °FScattered clouds.12 mph75%29.94 "Hg10 mi
6:53 AM63 °FPassing clouds.15 mph78%29.93 "Hg10 mi
5:53 AM63 °FPassing clouds.12 mph78%29.91 "Hg10 mi
4:53 AM64 °FPassing clouds.15 mph75%29.89 "Hg10 mi
3:53 AM64 °FClear.15 mph75%29.88 "Hg10 mi
2:53 AM65 °FClear.9 mph73%29.88 "Hg10 mi
1:53 AM66 °FClear.15 mph73%29.87 "Hg10 mi
12:53 AM66 °FClear.14 mph70%29.88 "Hg10 mi
11:53 PM
Fri, Jul 31
68 °FClear.14 mph63%29.88 "Hg10 mi
10:53 PM69 °FClear.15 mph61%29.87 "Hg10 mi
9:53 PM71 °FClear.13 mph55%29.85 "Hg10 mi
8:53 PM74 °FPassing clouds.13 mph50%29.85 "Hg10 mi
7:53 PM78 °FPassing clouds.13 mph46%29.83 "Hg10 mi
6:53 PM85 °FPassing clouds.14 mph46%29.82 "Hg10 mi
5:53 PM92 °FScattered clouds.15 mph38%29.82 "Hg10 mi
4:53 PM92 °FBroken clouds.12 mph40%29.83 "Hg10 mi
3:53 PM92 °FPartly sunny.3 mph37%29.86 "Hg10 mi
2:53 PM90 °FPartly sunny.6 mph39%29.89 "Hg10 mi
Weather by CustomWeather, © 2015

See weather overviewHow to use our weather pages